Weather History for Lewisburg, WV

Change the Weather History Date:

Sunday, June 8, 2014

  Actual Average Record
Temperature  
Mean Temperature 68 °F 65 °F  
Max Temperature 80 °F 77 °F 90 °F (2011)
Min Temperature 56 °F 53 °F 43 °F (1998)
Degree Days  
Heating Degree Days 0    
Month to date heating degree days 12  
Since 1 June heating degree days 12  
Cooling Degree Days 3    
Month to date cooling degree days 11  
Year to date cooling degree days 44  
Since 1 June cooling degree days 11  
Growing Degree Days 18 (Base 50)    
Moisture  
Dew Point 60 °F    
Average Humidity 74    
Maximum Humidity 96    
Minimum Humidity 52    
Precipitation  
Precipitation 0.04 in 0.12 in 1.18 in (1951)
Month to date precipitation 2.05 1.03  
Year to date precipitation 12.98 18.21  
Snow  
Snow 0.00 in - - ()
Month to date snowfall 0.0  
Since 1 June snowfall 0.0  
Snow Depth 0.00 in    
Sea Level Pressure  
Sea Level Pressure 29.95 in    
Wind  
Wind Speed 2 mph (SSW)    
Max Wind Speed 13 mph    
Max Gust Speed 21 mph    
Visibility 9 miles    
Events Rain , Thunderstorm    
T = Trace of Precipitation, MM = Missing Value Source: NWS Daily Summary

Daily Weather History Graph

Daily Weather History Graph

Search for Another Location

Airport:

Trip Planner

Search our weather history database for the weather conditions in past years. The results will help you decide how hot, cold, wet, or windy it might be!

Date:

Astronomy

Jun. 08, 2014 Rise Set
Actual Time 5:59 AM EDT 8:42 PM EDT
Civil Twilight 5:28 AM EDT 9:13 PM EDT
Nautical Twilight 4:49 AM EDT 9:52 PM EDT
Astronomical Twilight 4:05 AM EDT 10:36 PM EDT
Moon 4:03 PM EDT (6/8) 2:46 AM EDT (6/8)
Length of Visible Light 15h 45m
Length of Day
14h 43m
Waxing Gibbous, 77% of the Moon is Illuminated
Jun 8
Waxing Gibbous
Jun 13
Full
Jun 19
Last Quarter
Jun 27
New
Jul 5
First Quarter

Hourly Weather History & Observations

Time (EDT) Temp. Dew Point Humidity Pressure Visibility Wind Dir Wind Speed Gust Speed Precip Events Conditions
12:15 AM 64.6 °F 57.2 °F 77% 30.03 in 10.0 mi Calm Calm - N/A   Clear
12:35 AM 65.5 °F 57.6 °F 76% 30.03 in 10.0 mi Calm Calm - N/A   Mostly Cloudy
12:55 AM 63.3 °F 57.2 °F 80% 30.03 in 10.0 mi Calm Calm - N/A   Overcast
1:15 AM 63.0 °F 56.8 °F 80% 30.02 in 10.0 mi Calm Calm - N/A   Mostly Cloudy
1:35 AM 61.2 °F 57.4 °F 87% 30.02 in 10.0 mi Calm Calm - N/A   Mostly Cloudy
1:55 AM 60.6 °F 57.4 °F 89% 30.02 in 10.0 mi Calm Calm - N/A   Scattered Clouds
2:15 AM 60.1 °F 57.4 °F 91% 30.01 in 7.0 mi Calm Calm - N/A   Clear
2:35 AM 59.9 °F 57.2 °F 91% 30.01 in 7.0 mi Calm Calm - N/A   Scattered Clouds
2:55 AM 59.9 °F 57.2 °F 91% 30.00 in 7.0 mi Calm Calm - N/A   Mostly Cloudy
3:15 AM 58.8 °F 56.3 °F 91% 29.98 in 7.0 mi Calm Calm - N/A   Scattered Clouds
3:35 AM 58.8 °F 56.7 °F 93% 29.98 in 5.0 mi Calm Calm - N/A   Clear
3:55 AM 58.8 °F 56.5 °F 92% 29.98 in 7.0 mi Calm Calm - N/A   Clear
4:15 AM 57.9 °F 55.8 °F 92% 29.99 in 5.0 mi Calm Calm - N/A   Clear
4:35 AM 57.6 °F 55.4 °F 92% 29.98 in 5.0 mi Calm Calm - N/A   Clear
4:55 AM 57.9 °F 55.8 °F 92% 29.98 in 5.0 mi Calm Calm - N/A   Clear
5:15 AM 57.2 °F 55.2 °F 93% 29.98 in 3.0 mi Calm Calm - N/A   Clear
5:35 AM 56.8 °F 55.0 °F 94% 29.98 in 4.0 mi Calm Calm - N/A   Clear
5:55 AM 56.8 °F 55.0 °F 94% 29.98 in 2.5 mi Calm Calm - N/A   Clear
6:15 AM 56.7 °F 54.9 °F 94% 29.98 in 2.5 mi Calm Calm - N/A   Mostly Cloudy
6:35 AM 57.4 °F 55.6 °F 94% 29.98 in 2.5 mi Calm Calm - N/A   Mostly Cloudy
6:55 AM 57.2 °F 55.4 °F 94% 29.98 in 3.0 mi Calm Calm - N/A   Clear
7:15 AM 59.2 °F 57.4 °F 94% 29.98 in 4.0 mi Calm Calm - N/A   Clear
7:35 AM 61.0 °F 58.5 °F 91% 29.98 in 7.0 mi NNE 4.6 mph - N/A   Scattered Clouds
7:55 AM 61.9 °F 58.8 °F 90% 29.98 in 7.0 mi Calm Calm - N/A   Scattered Clouds
8:15 AM 63.1 °F 59.4 °F 87% 29.98 in 10.0 mi NNE 3.5 mph - N/A   Scattered Clouds
8:35 AM 65.1 °F 60.1 °F 84% 29.98 in 10.0 mi Calm Calm - N/A   Clear
8:55 AM 66.6 °F 60.6 °F 81% 29.98 in 10.0 mi Calm Calm - N/A   Scattered Clouds
9:15 AM 68.2 °F 60.4 °F 76% 29.98 in 10.0 mi Calm Calm - N/A   Mostly Cloudy
9:35 AM 68.2 °F 60.1 °F 75% 29.98 in 10.0 mi Calm Calm - N/A   Overcast
9:55 AM 69.1 °F 60.8 °F 75% 29.98 in 10.0 mi Calm Calm - N/A   Overcast
10:35 AM 70.9 °F 61.0 °F 71% 29.96 in 10.0 mi Calm Calm - N/A   Overcast
10:55 AM 71.1 °F 60.8 °F 70% 29.97 in 10.0 mi West 4.6 mph - N/A   Overcast
11:15 AM 70.5 °F 62.1 °F 74% 29.98 in 10.0 mi North 5.8 mph - N/A   Overcast
11:35 AM 70.0 °F 62.6 °F 77% 29.99 in 10.0 mi North 5.8 mph - N/A   Overcast
11:55 AM 69.1 °F 62.1 °F 78% 29.98 in 10.0 mi North 4.6 mph - N/A   Overcast
12:15 PM 70.2 °F 62.4 °F 76% 29.97 in 10.0 mi Calm Calm - N/A   Overcast
12:35 PM 73.2 °F 62.2 °F 68% 29.96 in 10.0 mi Calm Calm - N/A   Scattered Clouds
1:15 PM 76.3 °F 62.1 °F 61% 29.94 in 10.0 mi South 5.8 mph - N/A   Scattered Clouds
1:35 PM 77.2 °F 61.9 °F 59% 29.94 in 10.0 mi SSW 3.5 mph - N/A   Scattered Clouds
2:15 PM 76.5 °F 62.1 °F 61% 29.92 in 10.0 mi SSE 5.8 mph - N/A   Mostly Cloudy
2:35 PM 79.3 °F 61.2 °F 54% 29.91 in 10.0 mi SSW 10.4 mph - N/A   Mostly Cloudy
2:55 PM 79.5 °F 60.8 °F 53% 29.89 in 10.0 mi SSW 6.9 mph - N/A   Mostly Cloudy
3:15 PM 78.3 °F 60.4 °F 54% 29.89 in 10.0 mi SSW 10.4 mph - N/A   Mostly Cloudy
3:35 PM 78.3 °F 61.2 °F 56% 29.89 in 10.0 mi South 8.1 mph - N/A   Overcast
3:55 PM 74.1 °F 63.7 °F 70% 29.89 in 7.0 mi SSW 8.1 mph - 0.03 in Rain Light Rain
4:15 PM 75.4 °F 62.6 °F 64% 29.89 in 10.0 mi SSW 10.4 mph 16.1 mph N/A   Overcast
4:35 PM 77.0 °F 62.1 °F 60% 29.87 in 10.0 mi South 12.7 mph - N/A   Overcast
4:55 PM 76.3 °F 61.9 °F 61% 29.88 in 10.0 mi South 5.8 mph - N/A   Mostly Cloudy
5:15 PM 76.5 °F 61.2 °F 59% 29.87 in 10.0 mi South 11.5 mph - N/A   Overcast
5:35 PM 73.4 °F 63.9 °F 72% 29.89 in 7.0 mi SSW 12.7 mph 20.7 mph 0.01 in Rain , Thunderstorm Light Thunderstorms and Rain
5:55 PM 73.6 °F 65.3 °F 75% 29.89 in 10.0 mi SSW 4.6 mph - 0.01 in   Overcast
6:15 PM 73.2 °F 64.8 °F 75% 29.89 in 10.0 mi Calm Calm - N/A Thunderstorm Overcast
6:35 PM 73.0 °F 64.4 °F 74% 29.88 in 10.0 mi SSW 4.6 mph - N/A   Mostly Cloudy
6:55 PM 73.0 °F 62.8 °F 70% 29.89 in 10.0 mi SSW 5.8 mph - N/A   Mostly Cloudy
7:15 PM 72.9 °F 63.5 °F 72% 29.88 in 10.0 mi SSW 3.5 mph - N/A   Scattered Clouds
7:35 PM 72.5 °F 63.7 °F 74% 29.89 in 10.0 mi SW 4.6 mph - N/A   Mostly Cloudy
7:55 PM 72.0 °F 63.5 °F 75% 29.89 in 10.0 mi Calm Calm - N/A   Overcast
8:15 PM 71.6 °F 63.5 °F 76% 29.89 in 10.0 mi Calm Calm - N/A   Overcast
8:35 PM 71.8 °F 63.1 °F 74% 29.89 in 10.0 mi Calm Calm - N/A   Overcast
8:55 PM 71.8 °F 62.8 °F 73% 29.90 in 10.0 mi Calm Calm - N/A   Overcast
9:15 PM 71.1 °F 60.6 °F 69% 29.91 in 10.0 mi North 5.8 mph - N/A   Mostly Cloudy
9:35 PM 70.3 °F 60.3 °F 70% 29.92 in 10.0 mi Calm Calm - N/A   Mostly Cloudy
9:55 PM 68.9 °F 60.3 °F 74% 29.93 in 10.0 mi Calm Calm - N/A   Scattered Clouds
10:15 PM 67.6 °F 61.0 °F 79% 29.95 in 10.0 mi Calm Calm - N/A   Mostly Cloudy
10:35 PM 68.7 °F 59.9 °F 73% 29.96 in 10.0 mi Calm Calm - N/A   Overcast
10:55 PM 68.9 °F 58.6 °F 70% 29.96 in 10.0 mi Calm Calm - N/A   Overcast
11:15 PM 68.0 °F 59.0 °F 73% 29.97 in 10.0 mi NNE 3.5 mph - N/A   Overcast
11:35 PM 66.4 °F 59.5 °F 79% 29.97 in 10.0 mi North 4.6 mph - N/A   Overcast
11:55 PM 66.7 °F 58.1 °F 74% 29.98 in 10.0 mi North 3.5 mph - N/A   Overcast